BHS320 MYGF-MYNN

Flight info

Callsign BHS320
Flight time N/A
Altitude 17000
Route BURBO
Aircraft B737/M-SDGIRWYZ/S

Departure

Time 2026-04-29 20:28
Airport Grand Bahama International Airport (MYGF)

Arrival

Time N/A
Airport Lynden Pindling International Airport (MYNN)
Time Latitude Longitude Altitude Speed Heading
2026-04-29 20:12 26.54879 -78.70515 20 ft 0 kts 346°
2026-04-29 20:22 26.54880 -78.70515 20 ft 1 kts 346°
2026-04-29 20:23 26.54947 -78.70512 18 ft 19 kts 37°
2026-04-29 20:23 26.54965 -78.70339 18 ft 23 kts 92°
2026-04-29 20:23 26.55031 -78.70177 17 ft 28 kts 41°
2026-04-29 20:23 26.55211 -78.70003 17 ft 38 kts 40°
2026-04-29 20:24 26.55415 -78.69805 17 ft 38 kts 41°
2026-04-29 20:24 26.55614 -78.69613 17 ft 37 kts 40°
2026-04-29 20:24 26.55800 -78.69411 17 ft 36 kts 61°
2026-04-29 20:24 26.55925 -78.69164 17 ft 36 kts 60°
2026-04-29 20:25 26.56048 -78.68916 17 ft 34 kts 60°
2026-04-29 20:25 26.56140 -78.68784 17 ft 18 kts
2026-04-29 20:25 26.56255 -78.68776 17 ft 20 kts 54°
2026-04-29 20:25 26.56358 -78.68569 17 ft 40 kts 59°
2026-04-29 20:26 26.56499 -78.68285 16 ft 40 kts 62°
2026-04-29 20:26 26.56529 -78.68099 15 ft 14 kts 65°
2026-04-29 20:26 26.56583 -78.68088 16 ft 5 kts 318°
2026-04-29 20:26 26.56584 -78.68117 16 ft 0 kts 242°
2026-04-29 20:27 26.56574 -78.68138 15 ft 26 kts 241°
2026-04-29 20:27 26.56302 -78.68685 18 ft 129 kts 241°
2026-04-29 20:28 26.55816 -78.69715 589 ft 166 kts 239°
2026-04-29 20:28 26.55205 -78.70875 1497 ft 185 kts 226°
2026-04-29 20:28 26.54067 -78.71490 2398 ft 196 kts 180°
2026-04-29 20:28 26.52801 -78.70963 3335 ft 209 kts 139°
2026-04-29 20:29 26.51912 -78.69635 4222 ft 227 kts 110°
2026-04-29 20:29 26.51806 -78.67861 5161 ft 243 kts 80°
2026-04-29 20:29 26.52109 -78.65936 6104 ft 261 kts 83°
2026-04-29 20:29 26.51833 -78.63910 7009 ft 280 kts 114°
2026-04-29 20:30 26.50620 -78.62199 8030 ft 293 kts 135°
2026-04-29 20:30 26.50420 -78.61990 8171 ft 295 kts 135°